Orbital elements:
    P/2008 J2 (Beshore)
Epoch 2008 Apr. 4.0 TT = JDT 2454560.5
T 2008 Mar. 20.84541 TT                                 MPC
q   2.4102821            (2000.0)            P               Q
n   0.15178231     Peri.  131.80832     -0.62954027     +0.75667489
a   3.4806094      Node    98.29863     -0.75520989     -0.54257170
e   0.3075115      Incl.   10.26968     -0.18258442     -0.36477262
P   6.49
Residuals in seconds of arc
080506 G96  0.4-  0.5-    080511 834  0.3+  0.4-    080531 A97  0.7+  0.1-
080506 G96  0.6-  0.4-    080511 H06  0.5-  0.0     080531 A97  1.6-  0.8+
080506 G96  0.4-  0.5-    080511 H06  0.4-  0.0     080601 J39  1.9+  0.2+
080506 G96  0.1-  0.4-    080511 682  0.3-  0.2+    080601 056  0.7+  0.3-
080506 F85  0.1+  0.3-    080511 682  0.4-  0.5+    080601 056  0.4+  0.1+
080506 423  0.1+  0.0     080511 349  0.3-  0.1-    080601 056  0.2+  0.4-
080506 474  0.1+  0.1-    080511 349  0.5-  0.1-    080601 J39  0.2+  0.2+
080506 423  0.1-  0.1-    080511 349  0.1-  0.1+    080601 J39 (0.7+  2.3-)
080506 474  0.3+  0.0     080511 349  0.0   0.1+    080602 E85  0.0   0.4-
080506 F85  0.3+  0.2-    080511 J51  0.3-  0.9+    080602 E85  0.0   0.4+
080506 423  0.3+  0.4-    080511 J51  0.5+  0.6+    080602 E85  0.1+  0.2-
080506 474  0.2+  0.0     080511 945  0.2-  0.5+    080602 A97  1.8-  0.6-
080506 F85  0.4+  0.3-    080511 J51  0.8-  0.1+    080602 A97  1.4-  1.1-
080506 900  0.4+  0.4-    080511 945  0.9-  0.9+    080602 A97  1.3-  0.7+
080506 900  0.3+  0.2-    080511 945  0.5-  0.2+    080603 945  0.3+  0.2-
080506 900  0.0   0.1+    080511 945  0.2-  0.4+    080603 945  0.8-  0.8+
080506 900  0.2+  0.1-    080511 056  0.1+  0.1-    080603 945  0.2-  0.3-
080506 900  0.2+  0.1-    080511 945  1.2-  0.0     080603 945  0.1-  0.3+
080506 300  0.2+  0.2-    080512 056  0.3+  0.2-    080603 J38  0.4-  0.6-
080506 300  0.1+  0.2-    080512 056  0.1+  0.2-    080603 J38  0.0   0.2-
080506 300  0.2+  0.2-    080512 056  0.2+  1.8-    080603 J38  1.4-  0.1-
080506 300  0.1+  0.1-    080512 J24  0.2-  0.0     080605 J40  1.6+  1.1-
080506 104  0.2+  0.4+    080512 J24  0.2+  0.2+    080605 J24  1.1+  0.6+
080506 595  0.0   0.4+    080512 J24  0.3+  0.3+    080605 J24  0.4+  0.4+
080506 595  0.3+  0.1+    080512 423 (0.1+  2.1-)   080605 J24  0.1+  1.3+
080506 104  0.2+  0.3+    080512 423  0.3-  0.7+    080606 900  1.9+  0.6-
080506 104  0.2+  0.1-    080512 367  0.5-  0.3+    080606 900  1.8-  0.6-
080506 B68  0.2-  0.0     080512 367  0.6-  0.4+    080606 585  1.3+  0.5+
080506 A55  0.2+  0.2+    080512 367  0.5-  0.3+    080606 585  0.8+  0.2+
080506 J95  0.1-  0.2+    080513 510  0.1+  0.4+    080606 585  2.0+  0.1+
080506 J95  0.1+  0.3-    080513 510  0.5-  0.1-    080606 585 (2.3+  0.4+)
080506 A55  0.3+  0.1+    080513 510  0.1-  0.2+    080606 585  0.8+  1.0-
080506 510  0.0   1.0+    080513 J24  0.3-  0.4+    080606 939  0.9-  1.4-
080506 J95  0.0   0.1-    080513 J40  0.1+  0.7-    080606 939  1.2-  0.5-
080506 J95  0.1+  0.3-    080513 J40  0.2+  0.3-    080606 939  1.7-  0.2+
080506 B68  0.2-  0.2-    080513 J40  0.2-  0.1+    080607 J45  0.5+  0.8+
080506 B20  0.4+  1.0+    080513 J40  0.2-  0.0     080607 J39 (7.3-  9.2-)
080506 A55  0.2+  0.2+    080513 J24  0.1-  0.4+    080607 J39 (5.9-  7.9-)
080506 B20  0.3+  0.8+    080513 J24  0.1+  0.4+    080607 J39 (4.5-  7.4-)
080506 510  0.5+  0.9+    080513 H06  0.8-  0.6-    080608 J45 (4.3-  7.9-)
080506 B20  0.2+  0.4+    080513 H06  0.6-  0.5-    080608 J39 (1.9-  6.4-)
080506 510  0.1+  1.0+    080513 213  0.2-  1.2+    080608 J45 (1.3+  5.3-)
080506 510  0.1-  0.5+    080513 213  0.2-  0.9+    080608 J47  0.1+  0.1+
080507 204  0.1+  0.1-    080513 213  0.8-  0.2-    080608 J47  0.1+  1.3-
080507 204  0.3+  0.1+    080513 B51  0.3-  0.0     080608 J47  0.1+  0.2-
080507 198  0.5+  0.3+    080513 B66  0.2+  0.3+    080608 673  0.6+  0.1+
080507 198  0.3+  0.2+    080514 B66  0.1+  1.0+    080608 673  0.6+  0.0
080507 198  0.6+  0.2+    080514 H06  0.0   0.5+    080608 673  0.5+  0.2-
080507 118  0.3+  0.0     080514 H06  0.3+  0.4-    080608 673  1.0+  0.1-
080507 I77  0.4-  0.1-    080514 423  0.2-  0.0     080608 J51  0.8+  0.2+
080507 118  0.3+  0.1+    080514 423  0.8-  0.6-    080608 J51  0.1+  0.2+
080507 I77  0.0   0.1-    080514 367  0.8-  0.1+    080608 J51  0.2+  0.6+
080507 118  0.4+  0.0     080514 367  1.1-  0.1-    080609 349  1.1-  0.2+
080507 I77  0.0   0.3-    080514 367  0.9-  0.0     080609 349  1.0-  0.0
080507 204  0.3+  0.1+    080514 349  0.7-  0.2+    080609 J47  0.2-  0.4+
080507 844  0.4+  0.0     080514 349  0.6-  0.2+    080609 J47  0.1-  0.0
080507 854  0.4-  0.0     080514 349  0.7-  0.0     080609 J47  0.3+  0.4+
080507 854  0.5-  0.1+    080514 900 (2.1-  0.2-)   080610 J45  1.6+  0.2+
080507 844  0.1+  0.5-    080514 900  0.6-  0.0     080610 J45  1.5+  0.4+
080507 844  0.1+  0.3-    080514 A97  1.3-  0.7+    080610 E85  0.1+  0.0
080507 854  0.3-  0.0     080514 585  1.1+  0.4+    080610 E85  0.2-  0.0
080507 844  0.2+  0.2-    080514 585  0.5+  0.2+    080610 E85  0.1+  0.3-
080507 854  0.1+  0.1+    080514 585  0.7+  0.3+    080611 J51  0.1-  0.1-
080507 854  0.2-  0.1-    080514 585  0.2+  0.0     080611 J51  0.5-  0.1-
080507 854  0.3-  0.1-    080514 A97 (2.2-  0.1-)   080611 J51  0.8-  0.4-
080507 673  0.5+  0.0     080514 585  0.1+  0.8+    080612 J24  0.6-  1.0+
080507 673  0.4+  0.0     080514 A97 (2.9-  1.0-)   080612 J24  0.6-  1.3+
080507 673  0.0   0.0     080515 423  1.1-  0.5-    080612 J24  0.7-  0.5+
080507 673  0.4+  0.2-    080515 423  0.7-  0.5-    080612 808  1.0+  0.9-
080507 H06  0.2+  0.5-    080515 900  0.1-  0.3-    080612 808  1.8+  0.2+
080507 H06  0.4+  0.8-    080515 900  0.2-  0.1-    080612 808  0.3-  0.5-
080507 H10  0.2+  0.2-    080516 423  0.7-  0.2-    080612 900  0.1-  0.1-
080507 G96  0.3-  0.3-    080516 423  1.0-  0.3-    080612 900  0.1+  0.1+
080507 G96  1.0-  0.5-    080516 367  0.4-  0.1-    080613 808  0.4+  0.1+
080507 G96  0.5-  0.4-    080516 367  0.0   0.3-    080613 808  0.8-  0.0
080507 G96  1.1-  0.6-    080516 367  0.7-  0.2-    080613 808  0.1+  0.0
080507 F85  0.1+  0.5-    080516 585 (1.5+  2.7+)   080620 E85  1.1+  1.4-
080507 F85  0.3+  0.5-    080516 585  0.3+  0.2+    080620 E85 (2.1-  1.2-)
080507 104  0.3+  0.1-    080516 585  0.5+  0.5-    080620 E85  0.7-  0.1-
080507 213  0.1+  0.2+    080516 585  1.1+  0.3-    080620 J51  0.6-  0.6+
080507 213  0.3-  0.2+    080516 585  0.7+  0.3-    080620 J51  0.6-  0.3+
080507 213  0.8-  0.1-    080517 H47  0.2+  0.2+    080620 J51  1.3-  0.1-
080507 104  0.3-  0.0     080517 H47  1.0+  0.1+    080621 J79  0.4+  0.2+
080507 104  0.3-  0.1-    080518 J24  0.1-  0.6+    080621 213  0.6+  0.4+
080507 585  0.0   0.3-    080518 J24  0.6+  0.9+    080621 213  1.0-  0.7-
080507 585  0.7+  0.5-    080518 J24  0.1+  0.4+    080621 J79  0.9-  0.2+
080507 585  0.9+  0.4-    080518 E85  0.5-  0.5-    080621 J79  0.8-  0.6+
080507 215  0.0   0.1+    080518 E85  0.5-  1.1-    080621 A06  0.5-  0.2-
080507 215  0.0   0.1+    080518 E85  0.0   0.4-    080621 A06  1.5+  0.7-
080507 585  0.9+  0.8-    080519 H51  0.3+  0.7+    080621 585  1.1+  0.0
080507 215  0.1-  0.1+    080519 H51  0.2-  0.2+    080622 585  0.3+  0.8-
080507 585  0.6+  0.3-    080519 H51  0.1-  0.9+    080622 A06  0.2-  0.0
080507 A97  0.5-  0.3-    080519 H51  0.8+  0.4+    080622 J47  0.5-  0.6+
080507 585  0.2+  0.7-    080519 H51  1.1+  0.9+    080622 J47  1.3-  0.3-
080507 A97  0.5-  0.6-    080519 673  0.8+  0.2+    080622 J47  0.9-  1.2-
080507 A97  0.8-  0.5-    080519 673  0.5+  0.3-    080622 585  0.6+  0.3-
080508 510  0.2+  0.3-    080519 673  1.1+  0.0     080622 585  0.7-  1.4+
080508 510  0.3+  0.1-    080519 673  1.2+  0.3-    080622 585  0.7+  0.6+
080508 510  0.1+  0.1-    080520 900  0.3-  0.5+    080623 204  0.2-  1.1-
080508 A77  0.1+  0.3+    080520 900  1.0+  0.4+    080623 204  0.6-  0.7-
080508 J95  0.3+  0.0     080520 349 (2.3-  0.8+)   080624 J39 (2.1-  0.5-)
080508 J95  0.5-  0.2-    080520 349  1.9-  0.5+    080624 J51  0.4-  0.2-
080508 J95  0.0   0.2-    080523 J51  0.3-  0.1+    080624 J51  0.4-  0.0
080508 J95  0.1+  0.2-    080523 J51  0.4-  0.3+    080624 J51  0.6-  0.1+
080508 A77  0.1-  0.3+    080523 J51  0.1-  0.2+    080625 415  0.5-  1.2-
080508 J24  0.4+  0.3+    080525 H06 (2.6-  1.3-)   080625 J47  0.7+  0.4+
080508 A77  0.3-  0.1+    080525 349  0.7-  0.0     080625 J47  0.4+  0.1-
080508 J24  0.4+  0.2+    080525 349  0.8-  0.1+    080625 J47  0.2-  0.8-
080508 J24  0.4+  0.2+    080525 945  0.9-  1.0-    080626 E16  0.1+  0.8-
080508 809  1.0+  0.0     080526 945  0.9-  0.2-    080626 E16  0.2+  0.6-
080508 423  0.3-  0.4-    080526 945  1.7-  0.6-    080627 850  0.5+  1.0+
080508 423  0.1-  0.3-    080526 945 (2.4-  0.2+)   080627 850  0.5+  1.4-
080509 B59  0.3-  0.2+    080526 945  0.6-  0.2+    080627 850  1.9+  1.1-
080509 B59  0.2-  0.0     080526 367  0.4-  0.3-    080627 J38  0.8+  0.4+
080509 H06  0.0   0.3-    080526 367  0.8-  0.1-    080627 J38  0.8+  0.0
080509 H06  0.0   0.4-    080526 367  0.7-  0.4+    080627 J38  0.7-  0.3+
080509 H06  0.2-  0.6-    080526 900  0.7-  0.1-    080627 232  0.2-  0.2-
080509 682  0.2+  0.3+    080526 900 (2.0+  0.3-)   080627 232  0.5-  0.1-
080509 682  0.8+  0.3+    080527 415  0.5-  0.1-    080627 232  1.2-  0.0
080509 A97  0.0   0.2-    080527 415  0.5+  0.1+    080628 850  0.3-  0.8-
080509 A97  0.6-  0.1-    080528 E85  0.6+  0.3-    080628 850  0.1-  0.1+
080509 017  0.4+  0.3-    080528 E85  0.1+  0.0     080628 850  0.2-  0.1+
080509 017  0.1-  0.4-    080528 E85  0.4+  0.3-    080628 850  0.1-  0.6-
080509 017  0.0   0.4-    080528 467  0.3+  0.2-    080628 B20  0.4+  0.3+
080509 A97  0.1-  0.2-    080528 467  0.9+  0.3-    080628 B20  0.6+  0.6+
080509 017  0.1-  0.1-    080528 467  0.2-  0.3-    080628 B20  0.3+  0.7+
080509 017  0.1+  0.4-    080529 J47  0.7+  0.2+    080629 844  1.0+  1.0+
080510 246  0.2+  0.1+    080529 J47  0.5+  0.2+    080629 844 (4.0-  0.4+)
080510 246  0.2+  0.2+    080529 J47  0.4+  0.5+    080629 844 (2.3+  4.1+)
080510 246  0.2+  0.1+    080529 J47  0.4+  0.5+    080629 844  0.7-  0.1-
080510 246  0.2+  0.1+    080529 J51  0.7-  0.0     080629 844  0.1+  0.2+
080510 246  0.3+  0.0     080529 J51  0.9-  0.0     080630 423  0.9-  0.7-
080510 118  0.2+  0.3-    080529 J51  0.4+  0.0     080630 423  0.1-  0.4+
080510 118  0.4+  0.2-    080529 H06 (6.8-  6.3-)   080630 215 (1.3-  2.4-)
080510 J24  0.4+  0.0     080529 415  0.2-  0.3-    080630 215  0.3-  0.7-
080510 118  0.5+  0.2-    080529 415  0.3+  0.4-    080630 215  0.2+  0.8-
080510 J24  0.5+  0.2-    080529 585  0.7+  1.2+    080701 J24 (2.6-  3.5+)
080510 J24  0.2+  0.0     080529 585  0.0   1.2+    080701 J24 (2.3-  1.8-)
080510 834  0.2+  0.1+    080529 585  0.4+  0.7+    080701 J24  0.6-  1.2-
080510 834  0.3+  0.1+    080529 585  0.7+  0.6+    080702 423  0.4+  0.4+
080510 834  0.3+  0.2+    080529 585  0.5+  0.8+    080702 423  0.2-  1.6-
080510 H06  0.0   0.0     080529 585  0.1-  0.4+    080702 J47  0.1+  0.6+
080510 H06  0.1+  0.1+    080529 J45  0.5+  0.4+    080702 J47  1.0+  0.7+
080510 854  0.9-  0.0     080530 J45  0.9+  0.0     080702 J47  0.4+  0.3+
080510 854  0.8-  0.0     080530 E85  0.2-  0.5-    080703 415 (2.8+  0.4+)
080510 854  0.5-  0.4+    080530 E85  1.0+  1.4-    080703 415  0.3-  1.4-
080510 423  0.3-  0.3-    080530 E85  0.1-  1.0-    080704 A06  0.5+  0.3+
080510 423  0.3-  0.1+    080530 056  0.2-  0.3+    080704 A06  0.7-  0.3+
080511 017  0.5+  0.6+    080530 056  0.4+  0.4+    080704 A06  0.7-  0.2+
080511 017  0.3+  0.4+    080530 B42  1.0-  1.4+    080705 349  0.1+  1.4+
080511 017  0.4+  0.5+    080530 056  0.3-  0.1-    080705 349  0.1-  1.7+
080511 017  0.4+  0.6+    080531 367  0.1+  0.3-    080705 J87  0.2-  0.1-
080511 017  0.3+  0.4+    080531 367  0.0   0.1+    080705 A77  0.5-  0.7+
080511 017  0.5+  0.5+    080531 367  0.0   0.3+    080705 J87  0.2+  0.1-
080511 017  0.2+  0.4+    080531 900  0.2-  0.5-    080705 J87  0.4+  0.5-
080511 017  0.1+  0.4+    080531 900  0.1-  0.4+    080706 J47  0.1+  0.9+
080511 J47  0.0   0.3+    080531 J47  0.1-  0.5+    080706 J47  0.0   0.2+
080511 J47  0.0   0.4+    080531 J47  0.1-  0.5+    080706 J47  1.1+  0.0
080511 J47  0.0   0.3+    080531 J47  0.0   0.7+    080707 130  0.3-  0.0
080511 834  0.1+  0.2-    080531 A97  1.3+  0.2-

